2023/08/21 00:00:00, 0.2,24.9
2023/08/21 00:10:00, 0.2,24.7
2023/08/21 00:20:00, 3.4,24.6
2023/08/21 00:30:00, 5.3,24.4
2023/08/21 00:40:00, 9.0,24.5
2023/08/21 00:50:00, 9.6,24.7
2023/08/21 01:00:00, 9.7,24.5
2023/08/21 01:10:00, 9.2,24.6
2023/08/21 01:20:00, 6.5,24.6
2023/08/21 01:30:00, 0.6,24.6
2023/08/21 01:40:00, 0.8,24.4
2023/08/21 01:50:00, 0.2,24.6
2023/08/21 02:00:00, 0.2,24.5
2023/08/21 02:10:00, 0.2,24.3
2023/08/21 02:20:00, 0.2,24.1
2023/08/21 02:30:00, 0.2,24.3
2023/08/21 02:40:00, 2.2,24.0
2023/08/21 02:50:00, 7.9,24.0
2023/08/21 03:00:00, 9.0,24.0
2023/08/21 03:10:00, 9.4,23.9
2023/08/21 03:20:00,10.5,23.7
2023/08/21 03:30:00, 5.6,23.8
2023/08/21 03:40:00, 0.4,23.7
2023/08/21 03:50:00, 0.3,23.6
2023/08/21 04:00:00, 0.2,23.8
2023/08/21 04:10:00, 0.2,23.8
2023/08/21 04:20:00, 0.2,23.6
2023/08/21 04:30:00,---,23.6
2023/08/21 04:40:00,10.7,23.5
2023/08/21 04:50:00, 9.8,23.5
2023/08/21 05:00:00, 5.6,23.5
2023/08/21 05:10:00, 2.2,23.7
2023/08/21 05:20:00, 5.7,23.3
2023/08/21 05:30:00, 9.2,23.3
2023/08/21 05:40:00,10.3,23.6
2023/08/21 05:50:00,10.7,23.9
2023/08/21 06:00:00, 8.7,23.7
2023/08/21 06:10:00, 8.2,24.0
2023/08/21 06:20:00, 7.9,24.6
2023/08/21 06:30:00, 7.8,24.9
2023/08/21 06:40:00, 7.7,25.5
2023/08/21 06:50:00, 7.7,25.3
2023/08/21 07:00:00, 7.8,25.5
2023/08/21 07:10:00, 8.0,26.0
2023/08/21 07:20:00, 8.0,26.3
2023/08/21 07:30:00, 8.1,26.3
2023/08/21 07:40:00, 8.0,26.3
2023/08/21 07:50:00, 8.0,26.9
2023/08/21 08:00:00, 8.1,27.7
2023/08/21 08:10:00, 8.2,28.4
2023/08/21 08:20:00, 8.1,31.3
2023/08/21 08:30:00, 8.1,31.2
2023/08/21 08:40:00, 7.9,30.0
2023/08/21 08:50:00, 7.6,31.4
2023/08/21 09:00:00, 7.6,31.7
2023/08/21 09:10:00, 7.8,32.6
2023/08/21 09:20:00, 7.6,33.6
2023/08/21 09:30:00, 7.2,33.1
2023/08/21 09:40:00, 7.4,32.8
2023/08/21 09:50:00, 7.7,33.2
2023/08/21 10:00:00, 8.1,33.9
2023/08/21 10:10:00, 8.9,33.7
2023/08/21 10:20:00, 9.6,33.8
2023/08/21 10:30:00, 9.2,34.0
2023/08/21 10:40:00, 9.0,34.0
2023/08/21 10:50:00, 8.8,34.4
2023/08/21 11:00:00, 8.4,34.1
2023/08/21 11:10:00, 8.2,33.3
2023/08/21 11:20:00, 8.1,34.4
2023/08/21 11:30:00, 7.8,34.7
2023/08/21 11:40:00, 7.4,34.8
2023/08/21 11:50:00, 7.3,34.9
2023/08/21 12:00:00, 7.2,35.0
2023/08/21 12:10:00, 7.3,34.8
2023/08/21 12:20:00,---,35.2
2023/08/21 12:30:00, 7.0,35.5
2023/08/21 12:40:00, 7.0,35.5
2023/08/21 12:50:00, 7.0,34.8
2023/08/21 13:00:00, 6.8,35.0
2023/08/21 13:10:00, 6.7,35.0
2023/08/21 13:20:00, 6.6,35.2
2023/08/21 13:30:00, 6.7,35.3
2023/08/21 13:40:00, 6.5,33.5
2023/08/21 13:50:00, 6.3,31.8
2023/08/21 14:00:00, 6.4,31.1
2023/08/21 14:10:00, 6.5,30.8
2023/08/21 14:20:00, 6.4,30.2
2023/08/21 14:30:00, 6.4,29.8
2023/08/21 14:40:00, 6.6,29.6
2023/08/21 14:50:00, 6.3,29.2
2023/08/21 15:00:00, 6.3,29.3
2023/08/21 15:10:00, 6.5,29.3
2023/08/21 15:20:00, 6.7,29.2
2023/08/21 15:30:00, 6.8,29.3
2023/08/21 15:40:00, 6.7,29.8
2023/08/21 15:50:00, 6.6,30.0
2023/08/21 16:00:00, 6.8,31.0
2023/08/21 16:10:00, 7.1,32.1
2023/08/21 16:20:00, 7.2,32.0
2023/08/21 16:30:00, 7.2,35.0
2023/08/21 16:40:00, 7.3,35.4
2023/08/21 16:50:00, 7.5,33.2
2023/08/21 17:00:00, 8.0,32.4
2023/08/21 17:10:00, 8.3,31.2
2023/08/21 17:20:00, 8.4,29.8
2023/08/21 17:30:00, 8.2,29.4
2023/08/21 17:40:00, 8.1,29.1
2023/08/21 17:50:00, 7.5,28.6
2023/08/21 18:00:00, 7.5,28.2
2023/08/21 18:10:00, 7.7,28.4
2023/08/21 18:20:00, 7.9,27.8
2023/08/21 18:30:00, 7.3,27.9
2023/08/21 18:40:00, 7.0,27.6
2023/08/21 18:50:00, 6.7,27.4
2023/08/21 19:00:00,---,27.0
2023/08/21 19:10:00,29.9,26.9
2023/08/21 19:20:00, 5.1,26.7
2023/08/21 19:30:00, 3.9,26.9
2023/08/21 19:40:00, 3.4,26.6
2023/08/21 19:50:00, 2.2,26.5
2023/08/21 20:00:00, 0.5,26.1
2023/08/21 20:10:00, 0.3,26.0
2023/08/21 20:20:00, 0.3,26.4
2023/08/21 20:30:00, 0.3,26.1
2023/08/21 20:40:00, 0.3,26.1
2023/08/21 20:50:00, 0.3,26.3
2023/08/21 21:00:00, 0.3,25.8
2023/08/21 21:10:00, 0.6,25.6
2023/08/21 21:20:00, 2.4,25.7
2023/08/21 21:30:00, 5.2,25.5
2023/08/21 21:40:00, 6.7,25.6
2023/08/21 21:50:00, 7.6,25.8
2023/08/21 22:00:00, 1.1,25.3
2023/08/21 22:10:00, 0.3,25.4
2023/08/21 22:20:00, 0.6,25.4
2023/08/21 22:30:00, 0.5,25.2
2023/08/21 22:40:00, 0.3,25.2
2023/08/21 22:50:00, 0.3,25.2
2023/08/21 23:00:00, 0.3,25.0
2023/08/21 23:10:00, 0.3,24.9
2023/08/21 23:20:00, 0.3,24.9
2023/08/21 23:30:00, 0.3,24.9
2023/08/21 23:40:00, 0.3,25.1
2023/08/21 23:50:00, 2.5,24.8
